Regional Weather Roundup
Issued by NWS

Home | Current Version | Previous Version | Graphics & Text | Print | Product List | Glossary On
Versions: 1 2 3 4 5 6 7 8 9 10 11 12 13 14 15 16 17 18 19 20 21 22 23 24 25 26 27 28 29 30 31 32 33 34 35 36 37 38 39 40 41 42 43 44 45 46 47 48 49 50
803
ASUS43 KLMK 140310
RWRKY
KENTUCKY REGIONAL WEATHER ROUNDUP
NATIONAL WEATHER SERVICE LOUISVILLE KY
1000 PM EST SAT FEB 13 2016

NOTE "FAIR" INDICATES FEW OR NO CLOUDS BELOW 12,000 FEET
WITH NO SIGNIFICANT WEATHER AND/OR OBSTRUCTIONS TO VISIBILITY.

KYZ001>023-026-027-061>063-070>075-140400-
WESTERN AND SOUTH CENTRAL KENTUCKY

CITY           SKY/WX    TMP DP  RH WIND       PRES   REMARKS
PADUCAH        CLOUDY    25   5  42 E9        30.45F WCI  15
HENDERSON      CLOUDY    23   3  42 E6        30.48F WCI  16
OWENSBORO      PTCLDY    23   2  40 NE7       30.49F WCI  15
HOPKINSVILLE   CLOUDY    24   7  46 NE8       30.45F WCI  16
BOWLING GREEN  PTCLDY    25   3  38 N3        30.47F
GLASGOW        PTCLDY    23   7  49 NE5       30.45F WCI  17
$$

KYZ024-025-028>034-038-045-046-053-140400-
NORTH CENTRAL KENTUCKY

CITY           SKY/WX    TMP DP  RH WIND       PRES   REMARKS
LOUISVILLE/SDF PTCLDY    21   2  43 E6        30.49F WCI  13
LOUISVILLE/LOU CLEAR     21   3  45 E5        30.50F WCI  15
FORT KNOX      CLOUDY    19   3  49 N5        30.45F WCI  13
$$

KYZ035>037-039>044-047>052-055>060-089>105-140400-
NORTHEAST KENTUCKY

CITY           SKY/WX    TMP DP  RH WIND       PRES   REMARKS
LEXINGTON      CLEAR     15   3  59 NE8       30.48R WCI   4
COVINGTON      CLOUDY    12   5  73 CALM      30.49S
FRANKFORT      CLOUDY    17   1  49 NE6       30.48S WCI   9
$$

KYZ054-064>069-076>088-106>120-140400-
SOUTHEAST KENTUCKY

CITY           SKY/WX    TMP DP  RH WIND       PRES   REMARKS
JACKSON        CLEAR     14   2  58 CALM      30.44F
LONDON         CLEAR     17   3  54 CALM      30.45S
SOMERSET       CLEAR     18   5  57 NE3       30.47F
MIDDLESBORO    CLEAR     18   8  65 CALM      30.45F
MONTICELLO     CLEAR     16   8  71 W7        30.47F WCI   6
$$





USA.gov is the U.S. government's official web portal to all federal, state and local government web resources and services.